[ x ]
ituDewa

Jackpot

Texas Poker Multi Jackpot System

Kini Telah hadir Jackpot SUPER ROYAL FLUSH

Kini Telah hadir Jackpot 2000 (khusus table VIP keatas).

Ikutilah global jackpot yang tersedia di system kami, dengan system jackpot terbaru dan pertama di indonesia, anda dapat membeli jackpot dengan harga 100 rupiah saja dan menangkan hadiahnya hingga puluhan juta rupiah.

Jackpot bukanlah suatu keharusan untuk dibeli, namun kami memberikan suatu fitur tambahan untuk member tercinta dari www.itudewaku.net.

Terdapat tiga pilihan harga jackpot yang bisa anda beli yaitu :100,500,1000 dan 2000(khusus table VIP Keatas) rupiah.

Hadiah dari Multi jackpot system www.itudewaku.net

  1. full house x 10 harga jackpot yang anda beli.
      (contoh:anda membeli 1000 maka:1000 X10 = 10.000)
  2. four of kind x 250 harga jackpot yang anda beli
      (contoh:anda membeli 1000 maka:1000 X250 = 250.000)
  3. Straight flush x 1200
      (contoh:anda membeli 1000 maka:1000 X1200 = 1.200.000)
  4. Royal flush x 10000 harga jackpot yang anda beli
      (contoh:anda membeli 1000 maka:1000 X10000 = 10.000.000)
  5. SUPER ROYAL FLUSH x 30000 harga jackpot yang anda beli
      (contoh:anda membeli 1000 maka:1000 X30000 = 30.000.000)

Kondisi kartu

  1. full house adalah kondisi kartu dimana kartu anda dan kartu tengah dengan total 7 kartu bisa mendapatkan nilai 5 kartu dengan kombinasi 1 tris(three of kind) dan 1 pair, contoh 3 kartu 10 dan 2 kartu 5
  2. Four of kind adalah kondisi kartu dimana kartu anda dan kartu tengah dengan total 7 kartu bisa mendapatkan nilai 5 kartu dengan kombinasi 4 kartu yang sama jumlah dan 1 kartu apapun juga contoh anda mendapatkan 4 buah kartu angka 3 dan 1 kartu apapun.
  3. Staright flush adalah kondisi kartu dimana kartu anda dan kartu tengah dengan total 7 kartu bisa mendapatkan nilai 5 kartu dengan kombinasi seri / staright dengan kembang yang sama contoh : urutan kartu dari angka 5, 6, 7, 8 , 9 10 dengan kembang yg sama misalnya as hati
  4. Royal flush adalah kondisi kartu dimana kartu anda dan kartu tengah dengan total 7 kartu bisa mendapatkan nilai 5 kartu dengan kombinasi seri / staright dengan kembang yang sama tetapi kartu tersebut haruslah dimulai dari 10. contoh 10, Queen, Jack, King dan aces dengan kembang yang sama
  5. Super Royal flush adalah kondisi kartu dimana Kedua kartu anda digabung dengan 3 kartu pertama meja haruslah royal flush. contoh kartu anda 10,Queen kembang sama dan 3 kartu pertama meja adalah Jack, King dan aces dengan kembang yang sama

Demikian adalah penjelasan dari Multi Jackpot www.itudewaku.net terima kasih dan selamat bermain salam hoki dari kami

Texas Poker Jackpot Winner

TOP SUPER ROYAL FLUSH
No.TanggalNamaPriceWin
128/05 13:28ERIKSON08Super Royal flush6,000,000
228/05 12:18P11LUSuper Royal flush15,000,000
328/05 11:36SAKITGIGI7Super Royal flush1,500,000
428/05 10:55ADNANN88Super Royal flush3,000,000
528/05 07:52SUGAR04Super Royal flush6,000,000
TOP ROYAL FLUSH
No.TanggalNamaPriceWin
128/05 13:52ALIUNK82Royal flush1,000,000
228/05 13:44LOSESERoyal flush1,000,000
328/05 13:13EZRAHARARoyal flush10,000,000
428/05 13:12VIRGI369Royal flush2,000,000
528/05 12:04311285Royal flush2,000,000
TOP STRAIGHT FLUSH
No.TanggalNamaPriceWin
128/05 14:27FEBY_JTCStraight Flush240,000
228/05 14:26ROYALKOPStraight Flush240,000
328/05 14:26RASTA271Straight Flush1,200,000
428/05 14:26LUKELUKStraight Flush1,200,000
528/05 14:26MRBIG882Straight Flush120,000
LATEST JACKPOT
No.TanggalNamaPriceWin
128/05 14:30DDY99Full House5,000
228/05 14:30SRNMARDI123Full House5,000
328/05 14:30TEMPIK01Full House2,000
428/05 14:30OWM4Y1VAMXFull House5,000
528/05 14:30POWER1234Full House10,000
628/05 14:30DIEK444Full House2,000
728/05 14:30M62OBEDW2WFull House5,000
828/05 14:30MARC0PLL0Full House1,000
928/05 14:30AYRAH2Full House5,000
1028/05 14:30ST24Full House2,000
1128/05 14:30MBULSKY86Full House1,000
1228/05 14:30DILL_OKEFull House5,000
1328/05 14:30K0REJATFull House1,000
1428/05 14:30SENGGOLBACOKFull House1,000
1528/05 14:30BONEX1933Full House1,000
1628/05 14:30MOHE40Full House2,000
1728/05 14:30JPIKINGFull House500
1828/05 14:30K121T1N6Full House5,000
1928/05 14:30H9H95J70CTFull House5,000
2028/05 14:30AADDALDA7Full House2,000
2128/05 14:30DEWA_MUJURFull House5,000
2228/05 14:30ANHNET99Full House1,000
2328/05 14:30BUNDEROWFull House2,000
2428/05 14:30WAKOCAY123Four Of A Kind25,000
2528/05 14:30AVENGER86Full House2,000
2628/05 14:30S4KTY5PJFull House2,000
2728/05 14:30ZTE94Full House5,000
2828/05 14:30UNDA129Full House5,000
2928/05 14:30ZEIN20Full House2,000
3028/05 14:30YANREFFull House2,000
3128/05 14:30INGAWSOBOBFull House2,000
3228/05 14:30RAHMAD069Full House5,000
3328/05 14:30LOPOOOKFull House2,000
3428/05 14:30LISTIANI12Full House20,000
3528/05 14:30RICC03Full House5,000
3628/05 14:30THRKUBDFull House1,000
3728/05 14:30ALDIE063Full House5,000
3828/05 14:30NAZI121Four Of A Kind25,000
3928/05 14:30KASIBU79Full House1,000
4028/05 14:30SIM4N4LAG1Full House10,000
4128/05 14:30IDHAM1970Full House2,000
4228/05 14:30IKAMHIRANGFull House2,000
4328/05 14:30BG13ETFull House5,000
4428/05 14:30LMNOUAFC8UFull House1,000
4528/05 14:30PRABU5058Full House2,000
4628/05 14:30MUKSIN444Full House1,000
4728/05 14:30GROCKSABERFull House5,000
4828/05 14:30SNAJKANOGPFull House10,000
4928/05 14:30DIIRCOOFull House10,000
5028/05 14:30JHEBER2904Full House5,000

Domino Multi Jackpot System

Ikutilah global jackpot yang tersedia di system kami, dengan system jackpot terbaru dan pertama di indonesia, anda dapat membeli jackpot dengan harga 100 rupiah saja dan menangkan hadiahnya hingga puluhan juta rupiah.

Jackpot bukanlah suatu keharusan untuk dibeli, namun kami memberikan suatu fitur tambahan untuk member tercinta dari www.itudewaku.net.

Terdapat tiga pilihan harga jackpot yang bisa anda beli yaitu :100,500 dan 1000 rupiah.

Hadiah dari Multi jackpot system www.itudewaku.net

  1. Murni Kecil x 50 harga jackpot yang anda beli.
      (contoh:anda membeli 1000 maka:1000 X 50 = 50.000)
  2. Murni Besar x 50 harga jackpot yang anda beli
      (contoh:anda membeli 1000 maka:1000 X 50 = 50.000)
  3. BALAK x 100 harga jackpot yang anda beli
      (contoh:anda membeli 1000 maka:1000 X 100 = 100.000)
  4. ENAM DEWA x 6666 harga jackpot yang anda beli
      (contoh:anda membeli 1000 maka:1000 X 6666 = 6.666.000)

Demikian adalah penjelasan dari Multi Jackpot www.itudewaku.net terima kasih dan selamat bermain salam hoki dari kami

Domino Jackpot Winner

TOP ENAM DEWA
No.TanggalNamaPriceWin
128/05 13:42SAKOY82murni enam6,666,000
228/05 13:21UDIN259murni enam666,600
328/05 09:33OAACTG9VQ3murni enam6,666,000
428/05 06:37SILENCE90murni enam6,666,000
528/05 02:00FLIV6XYK0Lmurni enam6,666,000
TOP BALAK
No.TanggalNamaPriceWin
128/05 14:30JUNGZONGbalak10,000
228/05 14:17KALSEMbalak50,000
328/05 14:15BUJANG51balak10,000
428/05 14:07IAIHbalak100,000
528/05 13:59M3RCUSU4balak10,000
LATEST JACKPOT
No.TanggalNamaPriceWin
128/05 14:30ARI12_murni kecil5,000
228/05 14:30JUNGZONGbalak10,000
328/05 14:30CR15T4LLmurni kecil25,000
428/05 14:29KESAH77murni kecil5,000
528/05 14:29EBOT_01murni kecil25,000
628/05 14:28POHAN0408murni kecil5,000
728/05 14:28SONEN99murni besar5,000
828/05 14:28RONDOTELESmurni besar50,000
928/05 14:28ER87murni kecil50,000
1028/05 14:27IW4N98murni kecil5,000
1128/05 14:26BUNDAMIRNAmurni kecil25,000
1228/05 14:25GOLD3NSTARmurni besar25,000
1328/05 14:24ELVARO88murni besar25,000
1428/05 14:23SANDRY1812murni kecil50,000
1528/05 14:22BBEEKIYU66murni besar25,000
1628/05 14:22F9BC7105murni besar50,000
1728/05 14:20M45BOZmurni kecil50,000
1828/05 14:18K1Y4Imurni besar25,000
1928/05 14:17KUPASHABISmurni besar5,000
2028/05 14:17KALSEMbalak50,000
2128/05 14:16KORDINmurni besar5,000
2228/05 14:16ENCUT41murni kecil5,000
2328/05 14:15BUJANG51balak10,000
2428/05 14:12I_N_D_O_99lucky9910,000
2528/05 14:12SHR72murni besar50,000
2628/05 14:10HOLAN8585murni besar25,000
2728/05 14:10CHAIKAmurni besar50,000
2828/05 14:09SEMENEWmurni besar25,000
2928/05 14:08ANNOY13murni kecil50,000
3028/05 14:08S4KTY5PJmurni kecil25,000
3128/05 14:07OSCAR0905lucky9950,000
3228/05 14:07GUAVAmurni besar50,000
3328/05 14:07IAIHbalak100,000
3428/05 14:07KASELLAmurni besar25,000
3528/05 14:06DAVOV86murni besar50,000
3628/05 14:05EDANELINKmurni besar50,000
3728/05 14:05PANDULAPASmurni besar25,000
3828/05 14:03ANDYARYAmurni kecil25,000
3928/05 14:02KOTOR123murni besar5,000
4028/05 14:02ANDITNBmurni besar5,000
4128/05 14:02PENCEN21murni kecil50,000
4228/05 14:02OLOY24murni besar50,000
4328/05 14:00PROJOK878murni besar25,000
4428/05 13:59M3RCUSU4balak10,000
4528/05 13:58CUTZZZmurni kecil5,000
4628/05 13:58EGHA1993murni kecil25,000
4728/05 13:57HK4DMARBUN98balak50,000
4828/05 13:57JUNGZONGmurni kecil5,000
4928/05 13:57MILDUPmurni besar25,000
5028/05 13:56SAKOY82murni kecil50,000

Ceme Multi Jackpot System

Jackpot dilihat dari gabungan kartu pemain dengan kartu bandar. Bandar harus membeli jackpot sebanyak jumlah player yang sedang duduk. Sebagai contoh bila terdapat 3 pemain duduk bermain, dan bandar memutuskan untuk membeli jackpot Rp 1.000, maka pada periode tersebut bandar akan membeli jackpot sebanyak 3xRp1.000 = Rp3.000.

Jackpot bukanlah suatu keharusan untuk dibeli, namun kami memberikan suatu fitur tambahan untuk member tercinta dari www.itudewaku.net.

Terdapat tiga pilihan harga jackpot yang bisa anda beli yaitu :100,500 dan 1000 rupiah.

Hadiah dari Multi jackpot system www.itudewaku.net

  1. Murni Kecil x 50 harga jackpot yang anda beli.
      (contoh:anda membeli 1000 maka:1000 X 50 = 50.000)
  2. Murni Besar x 50 harga jackpot yang anda beli
      (contoh:anda membeli 1000 maka:1000 X 50 = 50.000)
  3. BALAK x 200 harga jackpot yang anda beli
      (contoh:anda membeli 1000 maka:1000 X 200 = 200.000)
  4. ENAM DEWA x 6666 harga jackpot yang anda beli
      (contoh:anda membeli 1000 maka:1000 X 6666 = 6.666.000)

Demikian adalah penjelasan dari Multi Jackpot www.itudewaku.net terima kasih dan selamat bermain salam hoki dari kami

Ceme Jackpot Winner

TOP ENAM DEWA
No.TanggalNamaPriceWin
128/05 14:28RED8999murni enam6,666,000
228/05 14:14AJI290murni enam666,600
328/05 14:11WAKYETmurni enam666,600
428/05 14:00TEOT52murni enam666,600
528/05 13:30SIMAT06murni enam3,333,000
TOP BALAK
No.TanggalNamaPriceWin
128/05 14:30TARA1330balak200,000
228/05 14:30KOST35balak20,000
328/05 14:30PRANK99balak200,000
428/05 14:30QBGBZ1AFVSbalak200,000
528/05 14:29PRANK99balak200,000
LATEST JACKPOT
No.TanggalNamaPriceWin
128/05 14:30OPINKmurni besar25,000
228/05 14:30FAYOLLA4murni besar50,000
328/05 14:30KINGSAN27murni kecil50,000
428/05 14:30IRMADmurni kecil50,000
528/05 14:30BALUZA24murni kecil50,000
628/05 14:30TARA1330balak200,000
728/05 14:30KOST35balak20,000
828/05 14:30BAGONG866murni besar50,000
928/05 14:30IPUK1234murni besar5,000
1028/05 14:30PRANK99balak200,000
1128/05 14:30HENGKII136murni besar50,000
1228/05 14:30CEWKmurni besar50,000
1328/05 14:30RAHA120murni besar5,000
1428/05 14:30BEFAB524murni besar50,000
1528/05 14:30M3M3K97531murni besar50,000
1628/05 14:30QBGBZ1AFVSbalak200,000
1728/05 14:30AD777777murni kecil50,000
1828/05 14:30CMJ1809murni kecil5,000
1928/05 14:30AD777777murni kecil50,000
2028/05 14:30AIIGALEmurni kecil50,000
2128/05 14:30BALUZA24murni besar50,000
2228/05 14:30SHANTINOmurni besar50,000
2328/05 14:30PER234murni besar50,000
2428/05 14:30MALYEKmurni besar50,000
2528/05 14:29TONO_299murni besar5,000
2628/05 14:29PRANK99balak200,000
2728/05 14:29RAFLI002murni besar50,000
2828/05 14:29RUJITO_murni kecil50,000
2928/05 14:29SARMIN74murni kecil50,000
3028/05 14:29RUSTIANA88murni besar5,000
3128/05 14:29GENDOT79balak20,000
3228/05 14:28F16ZWE8QTZmurni besar5,000
3328/05 14:28LIPUS86murni kecil50,000
3428/05 14:282547MATAmurni besar25,000
3528/05 14:28BEBAN19murni besar25,000
3628/05 14:28AADDAGAA96murni besar50,000
3728/05 14:28TOWI32murni besar50,000
3828/05 14:28RAMBOBEWOKmurni kecil25,000
3928/05 14:28BHANDIT2murni kecil50,000
4028/05 14:28BLACK14_murni kecil50,000
4128/05 14:28HIKMATQQQmurni kecil50,000
4228/05 14:28SWIFT08murni kecil50,000
4328/05 14:28RED8999murni enam6,666,000
4428/05 14:27DODY141murni besar50,000
4528/05 14:27AMB881184murni kecil50,000
4628/05 14:27AL109balak200,000
4728/05 14:27FATANN88balak200,000
4828/05 14:27KOPESKOLEYmurni kecil50,000
4928/05 14:27C66AB736963balak200,000
5028/05 14:27DOLLES71balak200,000